SCP
0 -0 -0 -0 -0 -0 0 0 0 0 0 0 0 0 0 0 0 0 0 0 0 0 0 0 0 0 0 0 0 0 0 0 0 0 0 0 0 0 0 0 0 0 0 0 0 0 0 0 0
0 -0 -0 -0 -0 -0 0 0 0 0 0 0 0 -0 0 0 0 0 0 0 0 0 0 0 0 0 0 0 0 0 0 0 0 0 0 0 0 0 0 0 0 0 0 0 0 0 0 0 0
-0 -0 -0 -0 0 0 0 -0 0 0 0 -0 0 0 0 0 0 0 0 0 0 0 -0 0 0 0 0 0 0 0 0 0 0 0 0 0 0 0 0 0 0 0 0 0 0 0 0 0 0
-0 -0 -0 -0 0 0 0 0 0 0 0 -0 0 0 0 0 0 -0 0 0 -0 -0 -0 -0 0 -0 -0 -0 0 -0 0 0 0 0 0 0 0 0 0 0 0 0 0 0 0 0 0 0 0
-0 -0 0 0 0 0 0 0 -0 -0 0 0 -0 0 -0 -0 -0 -0 -0 -0 -0 -0 -0 -0 -0 -0 0 0 -0 -0 0 -0 -0 0 0 0 0 0 0 0 0 0 0 0 0 0 0 0 0
-0 0 0 0 0 0 0 0 -0 0 0 -0 -0 -0 -0 -0 -0 -0 -0 -0 -0 -0 -0 -0 -0 0 0 0 -0 -0 -0 -0 -0 0 0 0 0 0 0 0 0 0 0 0 0 0 0 0 0
0 -0 0 0 0 0 0 -0 -0 0 -0 0 0 -0 -0 -0 -0 0 0 -0 -0 -0 -0 -0 -0 -0 -0 -0 -0 -0 -0 -0 0 0 0 0 0 0 0 0 0 0 0 0 0 0 0 0 0
0 0 0 -0 -0 -0 0 -0 0 -0 -0 0 0 -0 -0 -0 -0 -0 -0 -0 -0 -0 -0 -0 -0 -0 -0 -0 -0 0 0 0 0 0 0 0 0 0 0 0 0 0 0 0 0 0 0 0 0
-0 -0 0 -0 -0 0 0 0 0 0 0 0 0 -0 -0 -0 -0 -0 -0 -0 -0 -0 -0 0 -0 0 0 0 0 0 0 0 0 0 0 0 0 0 0 0 0 0 0 0 0 0 0 0 0
-0 -0 0 0 0 0 0 0 0 0 0 -0 -0 0 -0 -0 -0 -0 -0 -0 -0 -0 0 0 0 0 0 0 0 0 0 0 0 0 0 0 0 0 0 0 0 0 0 0 0 0 0 -0 0
-0 0 0 0 0 0 -0 0 0 0 0 -0 0 0 -0 -0 -0 -0 -0 -0 -0 0 0 0 0 0 -0 0 -0 0 0 0 0 0 0 0 0 0 0 0 0 0 0 0 0 0 0 0 0
0 0 0 0 0 0 0 -0 0 0 -0 0 -0 -0 -0 -0 -0 -0 -0 -0 -0 0 0 0 0 0 0 -0 -0 0 0 0 0 0 0 0 0 0 0 0 0 0 0 0 0 0 0 0 0
0 0 0 -0 0 0 0 0 0 0 0 -0 -0 -0 -0 -0 -0 -0 -0 -0 0 0 0 0 0 0 0 0 -0 0 0 0 0 0 0 0 0 0 0 0 0 0 0 0 0 0 0 0 0
0 -0 -0 -0 -0 0 0 -0 0 0 -0 -0 -0 -0 -0 -0 -0 -0 0 0 0 0 0 0 0 1 0 0 0 0 0 0 0 0 0 0 0 0 0 0 0 0 0 0 0 0 0 0 0
-0 0 0 0 0 -0 -0 -0 -0 -0 0 -0 -0 -0 -0 -0 0 0 0 0 0 0 0 0 0 1 0 0 0 0 0 0 0 0 0 0 0 0 0 0 0 0 0 0 0 0 0 0 0
-0 -0 -0 -0 -0 0 -0 -0 -0 0 0 -0 -0 -0 -0 0 0 0 0 0 0 -0 -0 0 1 1 0 0 0 0 0 0 0 0 0 0 0 0 0 0 0 0 0 0 0 0 0 0 0
-0 -0 0 -0 0 0 -0 0 -0 0 0 0 -0 -0 0 0 0 0 0 0 0 0 0 0 1 1 0 0 0 0 0 0 0 0 0 0 0 0 0 0 0 0 0 0 0 0 0 0 0
0 0 -0 0 0 0 -0 -0 0 0 0 0 0 0 0 0 0 0 0 0 0 0 0 0 1 1 0 0 0 0 0 0 0 0 0 0 0 0 0 0 0 0 0 0 0 0 0 0 0
0 0 0 0 0 0 0 0 0 0 0 0 0 0 0 0 0 0 0 0 0 0 0 0 0 0 0 0 0 0 0 0 0 0 0 0 0 0 0 0 0 0 0 0 0 0 0 0 0
0 0 0 0 0 0 0 0 0 0 0 0 0 0 0 0 0 0 0 0 0 0 0 0 0 0 0 0 0 0 0 0 0 0 0 0 0 0 0 0 0 0 0 0 0 0 0 0 0
0 0 0 0 0 -0 0 0 0 0 0 0 0 0 0 0 0 0 0 0 0 0 0 0 0 0 0 0 0 0 0 0 0 0 0 0 0 0 0 0 0 0 0 0 0 0 0 0 0
0 0 0 0 0 0 -0 0 0 0 0 0 0 0 0 0 0 0 0 0 0 0 0 0 0 0 0 0 0 0 0 0 0 0 0 0 0 0 0 0 0 0 0 0 0 0 0 0 0
0 0 0 0 0 0 0 0 0 0 0 0 0 0 0 0 0 0 0 0 0 0 0 0 0 0 0 0 0 0 0 0 0 0 0 0 0 0 0 0 0 0 0 0 0 0 0 0 0
0 0 0 0 0 0 0 0 0 0 0 0 0 0 0 0 0 0 0 0 0 0 0 0 0 0 0 0 0 0 0 0 0 0 0 0 0 0 0 0 0 0 0 0 0 0 0 0 0
0 0 0 0 0 0 0 0 0 0 0 0 0 0 0 0 0 0 0 0 0 0 0 0 0 0 0 0 0 0 0 0 0 0 0 0 0 0 0 0 0 0 0 0 0 0 0 0 0
0 0 0 0 0 0 0 0 0 0 0 0 0 0 0 0 0 0 0 0 0 0 0 0 0 0 0 0 0 0 0 0 0 0 0 0 0 0 0 0 0 0 0 0 0 0 0 0 0
0 0 0 0 0 0 0 0 0 0 0 0 0 0 0 0 0 0 0 0 0 0 0 0 0 0 0 0 0 0 0 0 0 0 0 0 0 0 0 0 0 0 0 0 0 0 0 0 0
0 0 0 0 0 0 0 0 0 0 0 0 0 0 0 0 0 0 0 0 0 0 0 0 0 0 0 0 0 0 0 0 0 0 0 0 0 0 0 0 0 0 0 0 0 0 0 0 0
0 0 0 0 0 0 0 0 0 0 0 0 0 0 0 0 0 0 0 0 0 0 0 0 0 0 0 0 0 0 0 0 0 0 0 0 0 0 0 0 0 0 0 0 0 0 0 0 0
0 0 0 0 0 0 0 0 0 0 0 0 0 0 0 0 0 0 0 0 0 0 0 0 0 0 0 0 0 0 0 0 0 0 0 0 0 0 0 0 0 0 0 0 0 0 0 0 0
Wind_Speed_500mb
12 10 7 15 15 18 17 13 22 21 18 16 13 20 29 31 27 12 24 23 27 25 17 15 17 16 14 12 10 7 6 3 2 2 6 7 8 12 14 16 18 18 18 18 22 27 34 35 37
7 14 13 25 18 17 19 18 26 26 28 23 18 13 19 28 29 32 27 26 28 28 23 16 22 21 16 12 7 5 4 4 0 2 6 8 10 12 13 16 18 22 27 30 32 34 36 33 28
16 15 27 12 25 11 16 18 29 26 18 9 16 23 13 19 21 27 32 29 28 28 18 28 27 23 18 13 9 6 4 2 3 4 6 7 10 13 15 18 21 24 26 27 27 28 29 29 27
7 13 18 19 25 22 20 25 30 21 13 4 18 24 19 20 20 28 31 30 29 26 23 28 26 22 17 14 8 4 5 8 8 9 10 12 12 13 14 15 17 18 19 20 22 24 24 25 25
18 30 18 13 26 20 23 25 22 25 24 15 5 16 25 19 26 32 30 29 28 26 24 25 23 19 15 12 9 8 7 8 9 9 10 10 12 12 14 13 16 16 17 18 19 20 20 20 20
28 37 13 18 23 18 15 14 2 11 13 14 7 26 26 24 31 28 29 27 25 24 20 23 20 17 13 9 7 7 5 6 8 9 9 11 12 13 14 15 16 16 17 21 24 25 23 23 23
37 20 18 29 22 20 16 8 10 12 15 8 13 19 22 29 28 29 28 26 24 20 19 15 13 12 11 13 12 8 6 7 8 9 11 12 14 16 17 18 18 20 22 25 28 29 28 28 27
18 2 20 21 21 26 14 9 8 6 25 14 4 17 29 33 31 29 26 24 22 21 18 16 12 7 7 14 13 7 8 6 7 9 12 16 19 22 19 20 20 24 26 27 29 31 31 30 30
13 10 13 14 14 16 17 16 3 3 17 2 8 18 38 37 32 29 26 24 20 18 16 13 7 6 6 5 13 11 10 9 12 19 18 19 15 15 17 30 25 27 28 30 34 34 33 32 28
21 8 23 14 11 17 16 9 14 16 17 18 17 17 33 36 33 29 26 24 23 20 17 12 10 4 5 6 6 4 5 5 4 6 11 13 15 16 25 25 33 33 31 36 32 35 34 27 17
9 15 16 8 3 15 18 11 10 12 17 19 25 23 32 32 32 29 26 24 22 21 18 15 9 5 5 4 6 5 6 7 8 14 14 14 18 17 19 19 23 25 32 23 28 28 25 23 24
8 16 11 13 10 3 11 14 8 9 21 15 16 25 33 33 32 29 26 24 22 19 17 13 10 9 2 2 5 5 6 6 7 10 16 15 16 19 20 20 24 25 25 27 26 26 28 28 26
20 17 19 15 11 4 8 9 4 11 15 14 15 23 26 29 26 27 25 22 19 17 16 13 15 14 7 5 5 5 4 5 6 7 10 12 13 17 19 22 24 26 27 27 29 29 28 29 29
16 19 17 14 12 8 12 11 17 12 15 21 21 24 26 24 25 24 22 22 20 19 16 18 17 15 12 6 7 5 5 4 5 4 6 11 13 16 19 23 24 27 29 30 32 33 32 31 29
17 17 18 16 17 10 15 19 22 16 11 23 26 25 24 23 22 21 20 20 20 19 18 17 19 20 17 9 7 5 6 5 5 7 9 14 18 18 24 26 28 31 34 37 37 38 38 38 36
22 17 22 17 18 11 24 25 21 12 13 23 22 29 25 26 23 21 19 20 19 18 16 18 19 21 17 12 9 7 9 8 9 12 14 17 19 27 33 30 32 35 40 40 41 42 41 42 42
17 21 6 17 8 4 17 7 31 5 17 26 28 25 25 26 26 20 19 17 16 17 17 18 21 18 15 12 9 11 12 10 13 16 17 21 23 25 34 38 40 42 42 45 45 46 46 47 49
14 8 18 5 14 12 18 21 10 11 16 25 28 25 22 26 28 20 13 9 8 7 6 11 14 14 13 10 11 12 13 15 17 18 21 22 24 26 34 35 42 43 40 43 45 50 51 55 57
10 9 9 9 10 12 9 13 5 7 8 11 14 12 15 18 17 11 8 13 12 10 10 10 12 19 6 6 9 12 14 19 23 22 25 24 27 36 37 34 36 38 40 44 49 52 52 56 55
7 9 1 2 5 13 10 11 9 13 13 13 16 19 22 24 24 21 24 24 20 17 13 10 6 3 1 6 6 14 19 19 21 21 27 28 33 42 42 39 39 40 44 51 54 55 58 60 56
6 14 12 19 15 21 17 18 21 16 23 23 26 28 28 27 23 19 21 20 18 16 14 11 9 7 4 3 9 12 18 23 30 31 37 35 40 42 42 44 46 47 46 49 52 53 55 61 63
17 8 16 19 16 11 22 7 19 24 20 22 25 23 22 19 15 14 14 15 15 15 15 11 9 7 10 14 11 26 23 31 35 34 36 40 43 44 44 48 48 50 50 48 50 48 51 51 61
12 15 16 16 18 17 19 17 20 20 23 19 18 17 15 13 13 14 14 14 13 12 10 8 9 12 15 16 29 26 25 28 32 34 39 43 41 42 46 46 48 50 52 44 42 41 38 36 43
15 16 12 13 9 9 5 14 18 14 17 10 17 12 9 10 10 9 8 7 7 8 8 11 15 19 23 22 23 25 27 31 36 38 42 41 45 47 47 49 50 47 38 36 34 35 35 34 32
17 13 8 5 7 2 7 14 18 16 15 13 14 12 10 12 9 5 3 2 5 9 15 18 21 27 28 28 30 32 32 34 36 41 42 50 53 54 51 48 39 34 31 32 32 27 17 25 41
10 14 7 7 6 10 15 10 16 19 19 14 13 10 9 10 8 6 7 11 16 19 22 24 27 32 35 35 35 35 34 34 36 38 47 48 50 53 45 40 33 37 36 24 29 31 34 52 60
7 8 6 3 3 6 10 11 17 20 18 12 7 1 4 5 8 10 16 18 23 25 25 24 28 35 38 38 37 37 36 37 39 43 46 46 46 44 43 39 39 23 22 35 34 35 46 41 29
14 6 7 3 6 8 5 19 14 19 15 11 9 6 13 16 18 20 24 26 26 25 23 27 34 37 36 34 34 35 40 41 43 43 45 46 42 42 41 36 26 26 32 43 49 62 42 30 29
3 3 5 9 7 8 10 10 17 10 8 9 14 20 22 22 23 28 27 26 27 28 30 36 36 36 33 32 34 38 40 39 38 41 41 39 37 37 33 28 31 39 52 54 54 33 33 30 25
7 7 8 5 6 5 7 16 13 10 5 11 22 26 15 23 27 27 26 25 31 33 35 40 35 31 31 35 40 43 41 40 42 39 40 37 38 37 39 42 50 46 41 34 37 34 28 30 31
Wind_Direction_500mb
184 186 236 249 239 240 100 86 110 116 108 67 91 22 55 32 16 58 125 113 119 124 112 153 153 135 129 135 132 131 130 165 177 248 290 296 287 288 299 311 310 312 306 299 288 291 294 299 300
202 218 232 253 255 198 118 145 146 86 99 108 99 117 51 64 76 116 116 115 118 119 120 134 119 117 121 112 114 106 112 96 115 240 264 288 295 302 307 302 304 309 312 313 315 313 316 316 312
168 224 259 225 238 162 122 165 95 112 122 140 101 57 33 92 100 103 119 119 116 114 121 120 113 107 106 104 93 74 52 46 295 310 324 316 316 318 314 311 310 310 316 319 315 314 315 316 315
177 222 244 232 88 70 128 111 127 143 137 158 120 91 85 81 104 126 119 116 117 115 123 119 111 107 103 97 86 61 7 353 346 355 354 352 345 340 333 323 320 325 328 324 324 321 317 314 310
222 237 221 135 105 99 108 124 162 170 154 143 285 103 102 103 119 122 120 122 121 121 120 118 111 105 91 72 42 10 352 355 354 355 351 346 345 343 338 335 331 331 334 337 340 337 331 327 321
225 247 166 136 122 116 109 123 167 126 117 87 132 112 94 129 131 132 127 126 124 122 119 114 105 93 80 59 22 355 351 339 344 346 341 344 347 341 331 327 330 331 336 341 342 343 341 336 330
252 233 131 115 142 140 124 156 171 134 119 118 121 123 125 141 144 139 136 136 130 130 130 122 97 81 58 33 13 358 0 349 356 347 351 346 337 333 326 323 328 332 334 338 340 337 335 334 334
285 4 117 137 170 117 121 178 91 203 63 90 16 144 160 154 149 146 144 143 145 152 148 143 132 97 48 345 25 33 32 25 13 353 352 342 343 342 341 330 337 335 334 334 333 330 328 327 326
261 176 137 163 168 132 164 149 123 89 132 187 147 76 147 156 155 153 156 162 163 164 162 150 132 92 53 59 346 19 3 18 13 8 4 15 10 335 345 308 321 323 323 325 325 326 326 326 326
252 205 89 29 49 144 167 162 129 177 142 148 140 120 144 158 161 166 172 176 181 179 175 172 151 146 78 52 28 349 319 4 329 343 340 357 322 325 329 330 329 331 323 326 331 328 328 347 329
247 83 111 144 151 156 153 123 153 176 186 155 157 149 161 170 177 183 190 188 192 186 183 177 162 163 86 354 13 2 331 319 327 342 336 332 333 332 333 326 328 323 322 335 318 315 320 291 300
86 97 141 126 154 194 159 122 175 222 95 137 146 157 168 178 185 191 194 187 183 180 188 178 197 221 245 65 342 326 342 293 334 307 342 338 338 329 327 329 321 322 314 309 315 309 302 306 302
124 124 112 129 149 189 83 162 32 191 144 163 158 160 171 182 189 196 193 194 176 185 193 200 218 220 229 290 311 315 314 310 268 347 335 348 345 334 338 329 331 324 319 314 311 306 304 300 300
126 133 138 156 149 150 245 161 219 136 180 177 181 188 179 184 185 187 188 193 197 201 210 218 230 234 226 235 264 265 305 292 325 331 310 346 342 324 330 320 320 321 317 309 303 299 296 295 289
157 160 162 188 175 162 239 206 225 135 170 195 200 204 196 194 186 183 182 198 204 218 230 234 231 229 214 232 264 266 258 264 284 296 315 324 325 310 311 311 312 313 310 308 308 302 299 298 296
199 222 197 146 181 183 236 241 131 182 204 223 208 212 207 200 196 186 183 205 217 235 250 244 234 221 213 228 242 244 257 259 283 295 302 306 311 310 310 305 302 301 300 303 300 296 291 287 285
211 228 172 154 210 248 244 327 140 214 253 256 219 204 211 213 196 194 205 219 241 258 263 244 224 214 218 241 245 257 258 277 288 285 296 288 293 294 293 300 303 298 296 294 291 290 286 284 283
143 204 201 198 127 241 251 246 19 322 267 231 223 223 215 208 198 198 208 236 245 253 242 208 201 199 214 221 263 261 277 283 287 290 288 295 303 298 302 301 301 299 295 292 290 286 285 281 280
18 294 290 78 79 289 216 260 50 8 150 155 191 195 187 186 126 131 130 94 91 96 114 146 179 215 213 250 267 271 281 283 289 288 298 307 293 300 303 301 296 297 297 290 284 285 284 282 280
276 290 81 116 147 295 208 202 102 80 65 94 118 125 128 126 123 120 93 86 88 94 98 103 100 85 58 306 316 306 295 296 296 303 289 304 294 306 306 296 299 296 293 288 286 284 283 280 276
97 333 15 318 312 263 261 204 159 114 103 92 90 103 116 121 123 104 86 84 84 85 92 101 94 63 18 331 321 316 315 304 306 291 300 298 307 309 308 307 303 297 294 290 287 281 280 280 279
300 35 308 284 271 267 204 205 157 150 126 113 110 105 109 114 102 93 89 91 94 92 90 82 75 37 4 328 336 326 325 315 304 304 302 301 308 308 306 307 304 300 295 294 292 292 285 282 282
22 322 291 280 262 278 208 261 116 167 154 137 118 104 100 89 85 80 86 91 90 82 73 54 10 344 339 336 323 323 317 308 304 303 303 308 309 306 309 307 303 300 303 296 293 296 291 286 283
297 258 241 253 248 241 77 288 153 145 91 127 119 99 88 83 84 83 88 86 66 43 18 356 341 329 323 326 324 321 317 310 310 310 312 310 309 312 310 308 305 305 302 301 296 276 280 291 286
308 283 259 209 194 260 75 282 56 84 89 82 119 109 82 74 73 70 63 2 319 324 331 333 324 320 317 316 315 316 313 313 314 316 314 316 315 314 312 310 311 307 302 298 287 284 277 279 303
3 328 6 301 342 320 154 265 105 110 108 112 105 99 100 84 73 40 344 318 315 318 318 317 321 318 315 313 311 311 311 314 315 314 315 319 318 317 317 317 307 298 291 280 286 288 285 303 308
25 42 357 185 119 249 282 126 162 148 138 142 117 79 48 1 338 332 330 326 319 317 316 311 320 320 316 311 311 312 314 316 316 321 325 324 324 323 315 304 303 292 274 275 282 286 314 316 310
355 37 263 38 309 297 322 304 59 167 175 132 225 310 317 309 316 323 319 319 316 315 322 318 317 313 312 311 310 311 315 318 324 326 326 326 322 317 319 313 307 291 290 290 296 308 315 284 285
148 160 337 312 327 296 302 321 21 13 22 346 326 317 313 312 313 313 318 311 308 307 310 313 315 313 313 311 313 315 314 315 318 318 315 309 313 313 310 307 301 297 295 302 312 306 296 289 293
333 353 321 301 299 247 292 284 54 72 346 295 286 300 326 302 305 318 321 319 317 309 312 312 313 314 314 315 314 313 312 312 314 308 311 314 316 312 312 301 302 307 312 316 312 314 309 304 296
Wind_Speed_850mb
12 10 7 15 15 18 17 13 22 21 18 16 13 20 29 31 27 12 24 23 27 25 17 15 17 16 14 12 10 7 6 3 2 2 6 7 8 12 14 16 18 18 18 18 22 27 34 35 37
7 14 13 25 18 17 19 18 26 26 28 23 18 13 19 28 29 32 27 26 28 28 23 16 22 21 16 12 7 5 4 4 0 2 6 8 10 12 13 16 18 22 27 30 32 34 36 33 28
16 15 27 12 25 11 16 18 29 26 18 9 16 23 13 19 21 27 32 29 28 28 18 28 27 23 18 13 9 6 4 2 3 4 6 7 10 13 15 18 21 24 26 27 27 28 29 29 27
7 13 18 19 25 22 20 25 30 21 13 4 18 24 19 20 20 28 31 30 29 26 23 28 26 22 17 14 8 4 5 8 8 9 10 12 12 13 14 15 17 18 19 20 22 24 24 25 25
18 30 18 13 26 20 23 25 22 25 24 15 5 16 25 19 26 32 30 29 28 26 24 25 23 19 15 12 9 8 7 8 9 9 10 10 12 12 14 13 16 16 17 18 19 20 20 20 20
28 37 13 18 23 18 15 14 2 11 13 14 7 26 26 24 31 28 29 27 25 24 20 23 20 17 13 9 7 7 5 6 8 9 9 11 12 13 14 15 16 16 17 21 24 25 23 23 23
37 20 18 29 22 20 16 8 10 12 15 8 13 19 22 29 28 29 28 26 24 20 19 15 13 12 11 13 12 8 6 7 8 9 11 12 14 16 17 18 18 20 22 25 28 29 28 28 27
18 2 20 21 21 26 14 9 8 6 25 14 4 17 29 33 31 29 26 24 22 21 18 16 12 7 7 14 13 7 8 6 7 9 12 16 19 22 19 20 20 24 26 27 29 31 31 30 30
13 10 13 14 14 16 17 16 3 3 17 2 8 18 38 37 32 29 26 24 20 18 16 13 7 6 6 5 13 11 10 9 12 19 18 19 15 15 17 30 25 27 28 30 34 34 33 32 28
21 8 23 14 11 17 16 9 14 16 17 18 17 17 33 36 33 29 26 24 23 20 17 12 10 4 5 6 6 4 5 5 4 6 11 13 15 16 25 25 33 33 31 36 32 35 34 27 17
9 15 16 8 3 15 18 11 10 12 17 19 25 23 32 32 32 29 26 24 22 21 18 15 9 5 5 4 6 5 6 7 8 14 14 14 18 17 19 19 23 25 32 23 28 28 25 23 24
8 16 11 13 10 3 11 14 8 9 21 15 16 25 33 33 32 29 26 24 22 19 17 13 10 9 2 2 5 5 6 6 7 10 16 15 16 19 20 20 24 25 25 27 26 26 28 28 26
20 17 19 15 11 4 8 9 4 11 15 14 15 23 26 29 26 27 25 22 19 17 16 13 15 14 7 5 5 5 4 5 6 7 10 12 13 17 19 22 24 26 27 27 29 29 28 29 29
16 19 17 14 12 8 12 11 17 12 15 21 21 24 26 24 25 24 22 22 20 19 16 18 17 15 12 6 7 5 5 4 5 4 6 11 13 16 19 23 24 27 29 30 32 33 32 31 29
17 17 18 16 17 10 15 19 22 16 11 23 26 25 24 23 22 21 20 20 20 19 18 17 19 20 17 9 7 5 6 5 5 7 9 14 18 18 24 26 28 31 34 37 37 38 38 38 36
22 17 22 17 18 11 24 25 21 12 13 23 22 29 25 26 23 21 19 20 19 18 16 18 19 21 17 12 9 7 9 8 9 12 14 17 19 27 33 30 32 35 40 40 41 42 41 42 42
17 21 6 17 8 4 17 7 31 5 17 26 28 25 25 26 26 20 19 17 16 17 17 18 21 18 15 12 9 11 12 10 13 16 17 21 23 25 34 38 40 42 42 45 45 46 46 47 49
14 8 18 5 14 12 18 21 10 11 16 25 28 25 22 26 28 20 13 9 8 7 6 11 14 14 13 10 11 12 13 15 17 18 21 22 24 26 34 35 42 43 40 43 45 50 51 55 57
10 9 9 9 10 12 9 13 5 7 8 11 14 12 15 18 17 11 8 13 12 10 10 10 12 19 6 6 9 12 14 19 23 22 25 24 27 36 37 34 36 38 40 44 49 52 52 56 55
7 9 1 2 5 13 10 11 9 13 13 13 16 19 22 24 24 21 24 24 20 17 13 10 6 3 1 6 6 14 19 19 21 21 27 28 33 42 42 39 39 40 44 51 54 55 58 60 56
6 14 12 19 15 21 17 18 21 16 23 23 26 28 28 27 23 19 21 20 18 16 14 11 9 7 4 3 9 12 18 23 30 31 37 35 40 42 42 44 46 47 46 49 52 53 55 61 63
17 8 16 19 16 11 22 7 19 24 20 22 25 23 22 19 15 14 14 15 15 15 15 11 9 7 10 14 11 26 23 31 35 34 36 40 43 44 44 48 48 50 50 48 50 48 51 51 61
12 15 16 16 18 17 19 17 20 20 23 19 18 17 15 13 13 14 14 14 13 12 10 8 9 12 15 16 29 26 25 28 32 34 39 43 41 42 46 46 48 50 52 44 42 41 38 36 43
15 16 12 13 9 9 5 14 18 14 17 10 17 12 9 10 10 9 8 7 7 8 8 11 15 19 23 22 23 25 27 31 36 38 42 41 45 47 47 49 50 47 38 36 34 35 35 34 32
17 13 8 5 7 2 7 14 18 16 15 13 14 12 10 12 9 5 3 2 5 9 15 18 21 27 28 28 30 32 32 34 36 41 42 50 53 54 51 48 39 34 31 32 32 27 17 25 41
10 14 7 7 6 10 15 10 16 19 19 14 13 10 9 10 8 6 7 11 16 19 22 24 27 32 35 35 35 35 34 34 36 38 47 48 50 53 45 40 33 37 36 24 29 31 34 52 60
7 8 6 3 3 6 10 11 17 20 18 12 7 1 4 5 8 10 16 18 23 25 25 24 28 35 38 38 37 37 36 37 39 43 46 46 46 44 43 39 39 23 22 35 34 35 46 41 29
14 6 7 3 6 8 5 19 14 19 15 11 9 6 13 16 18 20 24 26 26 25 23 27 34 37 36 34 34 35 40 41 43 43 45 46 42 42 41 36 26 26 32 43 49 62 42 30 29
3 3 5 9 7 8 10 10 17 10 8 9 14 20 22 22 23 28 27 26 27 28 30 36 36 36 33 32 34 38 40 39 38 41 41 39 37 37 33 28 31 39 52 54 54 33 33 30 25
7 7 8 5 6 5 7 16 13 10 5 11 22 26 15 23 27 27 26 25 31 33 35 40 35 31 31 35 40 43 41 40 42 39 40 37 38 37 39 42 50 46 41 34 37 34 28 30 31
Wind_Direction_850mb
184 186 236 249 239 240 100 86 110 116 108 67 91 22 55 32 16 58 125 113 119 124 112 153 153 135 129 135 132 131 130 165 177 248 290 296 287 288 299 311 310 312 306 299 288 291 294 299 300
202 218 232 253 255 198 118 145 146 86 99 108 99 117 51 64 76 116 116 115 118 119 120 134 119 117 121 112 114 106 112 96 115 240 264 288 295 302 307 302 304 309 312 313 315 313 316 316 312
168 224 259 225 238 162 122 165 95 112 122 140 101 57 33 92 100 103 119 119 116 114 121 120 113 107 106 104 93 74 52 46 295 310 324 316 316 318 314 311 310 310 316 319 315 314 315 316 315
177 222 244 232 88 70 128 111 127 143 137 158 120 91 85 81 104 126 119 116 117 115 123 119 111 107 103 97 86 61 7 353 346 355 354 352 345 340 333 323 320 325 328 324 324 321 317 314 310
222 237 221 135 105 99 108 124 162 170 154 143 285 103 102 103 119 122 120 122 121 121 120 118 111 105 91 72 42 10 352 355 354 355 351 346 345 343 338 335 331 331 334 337 340 337 331 327 321
225 247 166 136 122 116 109 123 167 126 117 87 132 112 94 129 131 132 127 126 124 122 119 114 105 93 80 59 22 355 351 339 344 346 341 344 347 341 331 327 330 331 336 341 342 343 341 336 330
252 233 131 115 142 140 124 156 171 134 119 118 121 123 125 141 144 139 136 136 130 130 130 122 97 81 58 33 13 358 0 349 356 347 351 346 337 333 326 323 328 332 334 338 340 337 335 334 334
285 4 117 137 170 117 121 178 91 203 63 90 16 144 160 154 149 146 144 143 145 152 148 143 132 97 48 345 25 33 32 25 13 353 352 342 343 342 341 330 337 335 334 334 333 330 328 327 326
261 176 137 163 168 132 164 149 123 89 132 187 147 76 147 156 155 153 156 162 163 164 162 150 132 92 53 59 346 19 3 18 13 8 4 15 10 335 345 308 321 323 323 325 325 326 326 326 326
252 205 89 29 49 144 167 162 129 177 142 148 140 120 144 158 161 166 172 176 181 179 175 172 151 146 78 52 28 349 319 4 329 343 340 357 322 325 329 330 329 331 323 326 331 328 328 347 329
247 83 111 144 151 156 153 123 153 176 186 155 157 149 161 170 177 183 190 188 192 186 183 177 162 163 86 354 13 2 331 319 327 342 336 332 333 332 333 326 328 323 322 335 318 315 320 291 300
86 97 141 126 154 194 159 122 175 222 95 137 146 157 168 178 185 191 194 187 183 180 188 178 197 221 245 65 342 326 342 293 334 307 342 338 338 329 327 329 321 322 314 309 315 309 302 306 302
124 124 112 129 149 189 83 162 32 191 144 163 158 160 171 182 189 196 193 194 176 185 193 200 218 220 229 290 311 315 314 310 268 347 335 348 345 334 338 329 331 324 319 314 311 306 304 300 300
126 133 138 156 149 150 245 161 219 136 180 177 181 188 179 184 185 187 188 193 197 201 210 218 230 234 226 235 264 265 305 292 325 331 310 346 342 324 330 320 320 321 317 309 303 299 296 295 289
157 160 162 188 175 162 239 206 225 135 170 195 200 204 196 194 186 183 182 198 204 218 230 234 231 229 214 232 264 266 258 264 284 296 315 324 325 310 311 311 312 313 310 308 308 302 299 298 296
199 222 197 146 181 183 236 241 131 182 204 223 208 212 207 200 196 186 183 205 217 235 250 244 234 221 213 228 242 244 257 259 283 295 302 306 311 310 310 305 302 301 300 303 300 296 291 287 285
211 228 172 154 210 248 244 327 140 214 253 256 219 204 211 213 196 194 205 219 241 258 263 244 224 214 218 241 245 257 258 277 288 285 296 288 293 294 293 300 303 298 296 294 291 290 286 284 283
143 204 201 198 127 241 251 246 19 322 267 231 223 223 215 208 198 198 208 236 245 253 242 208 201 199 214 221 263 261 277 283 287 290 288 295 303 298 302 301 301 299 295 292 290 286 285 281 280
18 294 290 78 79 289 216 260 50 8 150 155 191 195 187 186 126 131 130 94 91 96 114 146 179 215 213 250 267 271 281 283 289 288 298 307 293 300 303 301 296 297 297 290 284 285 284 282 280
276 290 81 116 147 295 208 202 102 80 65 94 118 125 128 126 123 120 93 86 88 94 98 103 100 85 58 306 316 306 295 296 296 303 289 304 294 306 306 296 299 296 293 288 286 284 283 280 276
97 333 15 318 312 263 261 204 159 114 103 92 90 103 116 121 123 104 86 84 84 85 92 101 94 63 18 331 321 316 315 304 306 291 300 298 307 309 308 307 303 297 294 290 287 281 280 280 279
300 35 308 284 271 267 204 205 157 150 126 113 110 105 109 114 102 93 89 91 94 92 90 82 75 37 4 328 336 326 325 315 304 304 302 301 308 308 306 307 304 300 295 294 292 292 285 282 282
22 322 291 280 262 278 208 261 116 167 154 137 118 104 100 89 85 80 86 91 90 82 73 54 10 344 339 336 323 323 317 308 304 303 303 308 309 306 309 307 303 300 303 296 293 296 291 286 283
297 258 241 253 248 241 77 288 153 145 91 127 119 99 88 83 84 83 88 86 66 43 18 356 341 329 323 326 324 321 317 310 310 310 312 310 309 312 310 308 305 305 302 301 296 276 280 291 286
308 283 259 209 194 260 75 282 56 84 89 82 119 109 82 74 73 70 63 2 319 324 331 333 324 320 317 316 315 316 313 313 314 316 314 316 315 314 312 310 311 307 302 298 287 284 277 279 303
3 328 6 301 342 320 154 265 105 110 108 112 105 99 100 84 73 40 344 318 315 318 318 317 321 318 315 313 311 311 311 314 315 314 315 319 318 317 317 317 307 298 291 280 286 288 285 303 308
25 42 357 185 119 249 282 126 162 148 138 142 117 79 48 1 338 332 330 326 319 317 316 311 320 320 316 311 311 312 314 316 316 321 325 324 324 323 315 304 303 292 274 275 282 286 314 316 310
355 37 263 38 309 297 322 304 59 167 175 132 225 310 317 309 316 323 319 319 316 315 322 318 317 313 312 311 310 311 315 318 324 326 326 326 322 317 319 313 307 291 290 290 296 308 315 284 285
148 160 337 312 327 296 302 321 21 13 22 346 326 317 313 312 313 313 318 311 308 307 310 313 315 313 313 311 313 315 314 315 318 318 315 309 313 313 310 307 301 297 295 302 312 306 296 289 293
333 353 321 301 299 247 292 284 54 72 346 295 286 300 326 302 305 318 321 319 317 309 312 312 313 314 314 315 314 313 312 312 314 308 311 314 316 312 312 301 302 307 312 316 312 314 309 304 296